[keps] orb09274.2l.amsat
Ray Hoad
r.hoad at att.net
Thu Oct 1 18:20:49 PDT 2009
SB KEPS @ AMSAT $ORB09274.N
2Line Orbital Elements 09274.AMSAT
HR AMSAT ORBITAL ELEMENTS FOR AMATEUR SATELLITES IN NASA FORMAT
FROM WA5QGD FORT WORTH,TX October 1, 2009
Send Subscribe/unsubscribe to KEPS at
http://www.amsat.org/mailman/listinfo/keps
BID: ORB09274.N
DECODE 2-LINE ELSETS WITH THE FOLLOWING KEY:
1 AAAAAU 00 0 0 BBBBB.BBBBBBBB .CCCCCCCC 00000-0 00000-0 0 DDDZ
2 AAAAA EEE.EEEE FFF.FFFF GGGGGGG HHH.HHHH III.IIII JJ.JJJJJJJJKKKKKZ
KEY: A-CATALOGNUM B-EPOCHTIME C-DECAY D-ELSETNUM E-INCLINATION F-RAAN
G-ECCENTRICITY H-ARGPERIGEE I-MNANOM J-MNMOTION K-ORBITNUM Z-CHECKSUM
TO ALL RADIO AMATEURS BT
AO-07
1 07530U 74089B 09273.59281345 -.00000027 00000-0 10000-3 0 05957
2 07530 101.4221 294.3824 0012123 062.1427 298.0867 12.53576622595920
FO-29
1 24278U 96046B 09273.75534613 -.00000029 00000-0 32243-5 0 01604
2 24278 098.5358 133.5216 0351378 076.7982 287.2093 13.52945025648027
SO-33
1 25509U 98061B 09274.78724859 .00000404 00000-0 66751-4 0 5541
2 25509 031.4324 169.7212 0354193 190.6050 168.6942 14.28269710571081
RS-22
1 27939U 03042A 09273.70597294 .00000028 00000-0 14213-4 0 09044
2 27939 097.9256 144.6403 0013798 155.4251 204.7594 14.63343096321009
VO-52
1 28650U 05017B 09274.21538008 .00000377 00000-0 54137-4 0 3314
2 28650 097.7317 332.2271 0027926 045.2921 315.0541 14.81625091238342
AO-16
1 20439U 90005D 09274.77250725 .00000010 00000-0 19331-4 0 7157
2 20439 098.2929 238.3972 0010276 210.6092 149.4488 14.31834458 28402
LO-19
1 20442U 90005G 09274.67232865 -.00000004 00000-0 13681-4 0 6307
2 20442 098.2574 245.1515 0011525 206.1765 153.8835 14.32068816 28555
AO-27
1 22825U 93061C 09273.92445577 -.00000004 00000-0 15195-4 0 03547
2 22825 098.4480 224.0748 0007857 317.9303 042.1271 14.29274237835019
IO-26
1 22826U 93061D 09273.82601818 .00000017 00000-0 23073-4 0 824
2 22826 098.4415 224.6834 0008393 313.8918 046.1575 14.29527255835105
GO-32
1 25397U 98043D 09274.44594717 .00000078 00000-0 52548-4 0 32
2 25397 098.3238 291.0803 0000546 352.1130 008.0056 14.23164379583245
NO-44
1 26931U 01043C 09273.85748668 -.00000226 00000-0 -56075-4 0 2770
2 26931 067.0517 152.1073 0006774 272.3657 087.6596 14.29567170417683
SO-50
1 27607U 02058C 09273.93954920 .00000028 00000-0 26352-4 0 9979
2 27607 064.5580 063.9040 0054611 179.0329 181.0885 14.71461875364235
CO-55
1 27844U 03031E 09274.62319075 .00000041 00000-0 39193-4 0 6796
2 27844 098.7142 282.2957 0009380 193.3187 166.7753 14.20658068324379
CO-57
1 27848U 03031J 09274.54520581 .00000039 00000-0 38403-4 0 6292
2 27848 098.7177 281.2832 0009328 197.6826 162.4030 14.20457752324324
AO-51
1 28375U 04025K 09274.57606866 .00000004 00000-0 13622-4 0 4988
2 28375 098.0546 277.9941 0083501 161.5603 198.8643 14.40653454276276
CO-56
1 28941U 06005C 09274.50089293 .00273186 35666-4 36653-3 0 4913
2 28941 098.1279 110.2710 0043417 083.9365 276.6848 16.04548000204169
GENESAT1
1 29655U 06058C 09273.93026956 .00019032 00000-0 16975-3 0 08251
2 29655 040.0196 239.7123 0003554 243.4571 116.5908 15.67861063159063
CP3
1 31129U 07012N 09274.69784829 .00000040 00000-0 20313-4 0 2306
2 31129 097.9774 322.6131 0101811 315.8717 043.4391 14.52164655130347
CO-65
1 32785U 08021C 09273.82516304 .00000390 00000-0 56464-4 0 04925
2 32785 097.9344 336.8582 0015962 050.3557 309.9060 14.81522991077087
KKS-1
1 33493U 09002B 09274.86946466 .00000293 00000-0 45137-4 0 8058
2 33493 098.0647 027.5955 0018834 256.1800 103.7320 14.80737184 37253
SOHLA-1
1 33496U 09002E 09274.88559506 .00000032 00000-0 13568-4 0 7703
2 33496 098.0442 022.5691 0005823 313.4563 046.6158 14.69448143 36948
NOAA-10
1 16969U 86073A 09273.93447681 .00000023 00000-0 27364-4 0 07807
2 16969 098.6864 299.9777 0011524 247.6884 112.3052 14.27395201198596
NOAA-11
1 19531U 88089A 09273.78623590 .00000130 00000-0 90009-4 0 07997
2 19531 098.7817 002.0953 0011667 164.2029 195.9493 14.14904563084453
NOAA-12
1 21263U 91032A 09273.94804351 .00000015 00000-0 25273-4 0 03010
2 21263 098.7752 282.0706 0011793 195.7247 164.3569 14.25594900955467
MET-3/5
1 21655U 91056A 09274.58187751 .00000051 00000-0 10000-3 0 6610
2 21655 082.5544 131.3553 0012631 278.0233 081.9456 13.17020654871635
MET-2/21
1 22782U 93055A 09274.62537546 -.00000026 00000-0 -36949-4 0 5792
2 22782 082.5432 097.5821 0023661 050.1928 310.1286 13.83638198812329
OKEAN-4
1 23317U 94066A 09274.38948830 .00000046 00000-0 27313-5 0 325
2 23317 082.5380 235.3675 0023076 019.1395 341.0712 14.82723034808100
NOAA-14
1 23455U 94089A 09273.83388782 .00000276 00000-0 16962-3 0 07773
2 23455 098.9010 351.1032 0008627 249.0561 110.9668 14.13771264760856
NOAA-15
1 25338U 98030A 09273.95421388 -.00000062 00000-0 -81561-5 0 01024
2 25338 098.5953 260.8966 0011594 107.6987 252.5470 14.24785451591839
RESURS
1 25394U 98043A 09274.52722595 -.00000044 00000-0 -14962-5 0 3223
2 25394 098.3332 301.4257 0000584 283.6753 076.4367 14.24188335583532
FENGYUN1
1 25730U 99025A 09274.87977484 .00000665 00000-0 41567-3 0 8642
2 25730 098.7622 241.8803 0021289 276.4904 083.3841 14.07997828535334
OKEAN-0
1 25860U 99039A 09273.82863152 .00000038 00000-0 13201-4 0 7975
2 25860 097.7992 250.8805 0000965 104.0659 256.0654 14.73589467548705
NOAA-16
1 26536U 00055A 09273.90603039 -.00000076 00000-0 -15650-4 0 05816
2 26536 099.1819 280.1507 0010426 349.7532 010.3409 14.12533489465226
NOAA-17
1 27453U 02032A 09273.81311304 .00000138 00000-0 78251-4 0 05760
2 27453 098.4725 329.1823 0011872 170.6142 189.5239 14.24094935377786
NOAA-18
1 28654U 05018A 09273.89668546 .00000407 00000-0 24940-3 0 00648
2 28654 098.9154 216.3545 0015256 065.9548 294.3236 14.11291037224865
NOAA-19
1 33591U 09005A 09273.89937101 .00000393 00000-0 24266-3 0 02692
2 33591 098.7550 216.9505 0013517 307.0748 052.9198 14.10990770033346
HUBBLE
1 20580U 90037B 09272.11815026 .00000343 00000-0 13470-4 0 04543
2 20580 028.4692 143.9754 0003175 304.5197 055.5135 15.00834089865489
ISS
1 25544U 98067A 09274.76960447 .00013069 00000-0 87422-4 0 7067
2 25544 051.6375 119.6248 0008616 151.6185 208.5817 15.74522651622748
CO-58
1 28895U 05043F 09274.17005537 .00000045 00000-0 18836-4 0 4088
2 28895 098.0427 161.7287 0018343 019.7635 340.4255 14.59798613209193
FALCON
1 30776U 07006E 09273.96464815 .00000474 00000-0 37297-4 0 06747
2 30776 035.4331 177.6093 0000339 071.5624 288.5129 15.03315252141027
MAST
1 31126U 07012K 09274.73612497 .00000044 00000-0 20795-4 0 6985
2 31126 097.9767 324.5963 0093988 309.6694 049.6232 14.53518962130516
CAPE1
1 31130U 07012P 09273.77749049 .00000125 00000-0 39783-4 0 7075
2 31130 097.9787 321.6332 0102220 318.8764 040.4731 14.52089892130013
COMPASS
1 32787U 08021E 09273.79266734 .00000068 00000-0 15448-4 0 04819
2 32787 097.9318 336.6641 0016680 052.1208 308.1513 14.81661087077089
AAUSAT2
1 32788U 08021F 09274.83213886 .00000323 00000-0 47621-4 0 4739
2 32788 097.9325 337.7714 0016553 050.2016 310.0618 14.81788728 77244
DO-64
1 32789U 08021G 09274.71870176 .00000295 00000-0 44010-4 0 4881
2 32789 097.9365 337.8921 0016518 048.0874 312.1731 14.81802706 77228
CO-66
1 32791U 08021J 09274.72595817 .00000018 00000-0 91346-5 0 4700
2 32791 097.9336 337.6215 0017088 046.6416 313.6214 14.81482957 77181
RS-30
1 32953U 08025A 09274.75794789 .00000010 00000-0 00000 0 0 4181
2 32953 082.5046 190.3496 0018632 310.5441 049.4015 12.43003183 61633
TACSAT-3
1 35001U 09028A 09273.59158009 .00002944 00000-0 79092-4 0 1099
2 35001 040.4573 330.1657 0024041 229.0687 130.8045 15.39233803 20598
PHARMSAT
1 35002U 09028B 09274.56281472 .00002793 00000-0 73332-4 0 1069
2 35002 040.4709 323.5713 0027702 239.4337 120.3743 15.39990023 20743
HAWKSAT1
1 35003U 09028C 09273.54178853 .00005565 00000-0 13668-3 0 1105
2 35003 040.4629 328.9203 0027242 236.7079 123.1126 15.40769131 20607
CP6
1 35004U 09028D 09274.51232095 .00006484 00000-0 15782-3 0 1057
2 35004 040.4616 323.0815 0026983 243.8129 115.9908 15.40859667 20741
AEROCUB3
1 35005U 09028E 09273.55648074 .00005817 00000-0 14330-3 0 1056
2 35005 040.4745 329.1869 0026916 233.2775 126.5567 15.40630500 20592
DRAGNSAT
1 35690U 09038B 09273.94974241 .00036014 00000-0 16580-3 0 00745
2 35690 051.6379 120.0811 0002791 310.1839 049.8917 15.83224751009884
POLLUX
1 35693U 09038E 09274.73012306 .00031653 00000-0 15079-3 0 635
2 35693 051.6389 116.3004 0003159 236.9581 123.1079 15.82561244 9973
CASTOR
1 35694U 09038F 09273.80762553 .00016478 00000-0 85241-4 0 00603
2 35694 051.6404 121.4040 0003013 247.4933 112.5827 15.81248934009820
METEOR-M
1 35865U 09049A 09274.16635696 .00000176 00000-0 10000-3 0 138
2 35865 098.7998 324.3052 0003207 049.6494 310.4916 14.21827409 1919
STERKH-2
1 35866U 09049B 09273.66948054 .00000178 00000-0 10000-3 0 00163
2 35866 098.8005 323.8238 0003940 043.9397 316.2066 14.22296780001848
FREGAT-I
1 35867U 09049C 09274.72543441 .00002264 00000-0 10000-3 0 262
2 35867 097.3735 324.5402 0009030 235.3065 124.7206 15.22715157 2135
SUMBDILA
1 35870U 09049F 09274.79035001 .00000979 00000-0 41866-4 0 379
2 35870 097.3714 324.5940 0010355 241.2516 118.8200 15.22796602 2145
/EX
More information about the Keps
mailing list